Bryce Canyon, UT

6:19 AM MST on February 23, 2018 (GMT -0700)
Bryce Canyon

Weather History for KBCE - August, 2014

Change the Weather History Date:

Thursday, August 7, 2014

  Actual Average Record
Temperature  
Mean Temperature 60 °F -  
Max Temperature 79 °F 79 °F 90 °F (1981)
Min Temperature 42 °F 46 °F 32 °F (2011)
Degree Days  
Heating Degree Days 5    
Growing Degree Days 10 (Base 50)    
Moisture  
Dew Point 30 °F    
Average Humidity 39    
Maximum Humidity 74    
Minimum Humidity 11    
Precipitation  
Precipitation 0.00 in - - ()
Sea Level Pressure  
Sea Level Pressure 29.97 in    
Wind  
Wind Speed 7 mph (West)    
Max Wind Speed 20 mph    
Max Gust Speed 29 mph    
Visibility 10 miles    
Events      
Averages and records for this station are not official NWS values.
T = Trace of Precipitation, MM = Missing Value Source: NWS Daily Summary

Daily Weather History Graph

Daily Weather History Graph

Search for Another Location

Airport or City:

Trip Planner

Search our weather history database for the weather conditions in past years. The results will help you decide how hot, cold, wet, or windy it might be!

Date:

Astronomy

Aug. 07, 2014 Rise Set
Actual Time 6:37 AM MDT 8:30 PM MDT
Civil Twilight 6:08 AM MDT 8:59 PM MDT
Nautical Twilight 5:34 AM MDT 9:33 PM MDT
Astronomical Twilight 4:56 AM MDT 10:10 PM MDT
Moon 5:50 PM MDT (8/7) 3:12 AM MDT (8/7)
Length of Visible Light 14h 50m
Length of Day
13h 53m
Waxing Gibbous, 87% of the Moon is Illuminated
Aug 7
Waxing Gibbous
Aug 10
Full
Aug 17
Last Quarter
Aug 25
New
Sep 2
First Quarter

Hourly Weather History & Observations

Time (MDT) Temp. Windchill Dew Point Humidity Pressure Visibility Wind Dir Wind Speed Gust Speed Precip Events Conditions
12:53 AM 46.9 °F - 35.1 °F 63% 30.01 in 10.0 mi Calm Calm - N/A   Clear
1:53 AM 46.9 °F - 34.0 °F 61% 30.00 in 10.0 mi West 9.2 mph - N/A   Clear
2:53 AM 44.1 °F 39.0 °F 35.1 °F 71% 30.00 in 10.0 mi West 9.2 mph - N/A   Clear
3:53 AM 43.0 °F 36.8 °F 35.1 °F 74% 29.99 in 10.0 mi West 11.5 mph - N/A   Clear
4:53 AM 43.0 °F 39.5 °F 35.1 °F 74% 29.99 in 10.0 mi West 5.8 mph - N/A   Clear
5:53 AM 42.1 °F 36.6 °F 34.0 °F 73% 30.00 in 10.0 mi West 9.2 mph - N/A   Clear
6:53 AM 43.0 °F 39.5 °F 35.1 °F 74% 30.01 in 10.0 mi WNW 5.8 mph - N/A   Clear
7:53 AM 48.0 °F - 36.0 °F 63% 30.01 in 10.0 mi West 6.9 mph - N/A   Clear
8:53 AM 59.0 °F - 37.0 °F 44% 30.01 in 10.0 mi Variable 3.5 mph - N/A   Clear
9:53 AM 64.9 °F - 37.0 °F 36% 30.01 in 10.0 mi Calm Calm - N/A   Clear
10:53 AM 69.1 °F - 30.9 °F 24% 30.01 in 10.0 mi West 5.8 mph - N/A   Clear
11:53 AM 71.1 °F - 30.9 °F 23% 30.00 in 10.0 mi WNW 12.7 mph 17.3 mph N/A   Clear
12:53 PM 73.9 °F - 32.0 °F 21% 29.98 in 10.0 mi WNW 13.8 mph - N/A   Clear
1:53 PM 75.0 °F - 30.0 °F 19% 29.96 in 10.0 mi West 11.5 mph 20.7 mph N/A   Partly Cloudy
2:53 PM 75.9 °F - 28.9 °F 18% 29.96 in 10.0 mi SW 9.2 mph 20.7 mph N/A   Clear
3:53 PM 77.0 °F - 23.0 °F 13% 29.94 in 10.0 mi WSW 12.7 mph 28.8 mph N/A   Clear
4:53 PM 78.1 °F - 21.9 °F 12% 29.91 in 10.0 mi SW 15.0 mph 24.2 mph N/A   Clear
5:53 PM 75.9 °F - 18.0 °F 11% 29.93 in 10.0 mi West 19.6 mph 26.5 mph N/A   Clear
6:53 PM 73.9 °F - 19.9 °F 13% 29.92 in 10.0 mi West 16.1 mph - N/A   Clear
7:53 PM 71.1 °F - 19.0 °F 14% 29.92 in 10.0 mi West 15.0 mph - N/A   Clear
8:53 PM 59.0 °F - 23.0 °F 25% 29.94 in 10.0 mi WSW 5.8 mph - N/A   Clear
9:53 PM 57.0 °F - 26.1 °F 30% 29.95 in 10.0 mi West 8.1 mph - N/A   Clear
10:53 PM 52.0 °F - 27.0 °F 38% 29.96 in 10.0 mi West 5.8 mph - N/A   Clear
11:53 PM 46.9 °F - 28.9 °F 50% 29.98 in 10.0 mi WSW 5.8 mph - N/A   Clear